Flag for Germany Weather past 2 weeks in Hoyerswerda, Saxony, Germany

Now
54 °F

Passing clouds.


Feels Like: 54 °F
Forecast: 51 / 73 °F
Wind: 1 mph from East

Location: Cottbus

Current Time: Apr 26, 2015 at 11:12:48 PM

Latest Report: Apr 26, 2015 at 10:00 PM


Visibility: 7 mi

Pressure: 29.71 "Hg

Humidity: 96%

Dew point: 53 °F

Location of HoyerswerdaLocation

Historic Weather in Hoyerswerda — Graph

°F

Hoyerswerda temperature yesterday

Maximum temperature yesterday: 73 °F (at 3:00 PM)
Minimum temperature yesterday: 46 °F (at 1:00 AM)
Average temperature yesterday: 61 °F

Past Weeks' High & Low Weather Summary

 TemperatureHumidityPressure
High73 °F (Apr 25, 3:00 PM)100% (Apr 23, 6:00 AM)30.45 "Hg (Apr 23, 6:00 AM)
Low28 °F (Apr 19, 6:00 AM)19% (Apr 21, 2:00 PM)29.70 "Hg (Apr 26, 6:00 PM)
Average51 °F60%30.10 "Hg
* Reported Apr 11 10:00 PM — Apr 26 10:00 PM, Hoyerswerda, Weather by CustomWeather, © 2015

Note: Actual official high and low records may vary slightly from our data, if they occured in-between our weather recording intervals... More about our weather records

Advertising

Hoyerswerda weather history for previous 24 hours

 ConditionsComfort  
Time TempWeatherWind HumidityBarometerVisibility
10:00 PM
Sun, Apr 26
54 °FPassing clouds.1 mph96%29.71 "Hg7 mi
9:00 PM59 °FOvercast.1 mph85%29.72 "Hg15 mi
8:00 PM61 °FOvercast.1 mph77%29.70 "Hg19 mi
7:00 PM62 °FLow clouds.1 mph69%29.70 "Hg31 mi
6:00 PM67 °FOvercast.2 mph47%29.70 "Hg43 mi
5:00 PM68 °FPartly sunny.5 mph49%29.71 "Hg43 mi
4:00 PM67 °FOvercast.5 mph49%29.72 "Hg40 mi
3:00 PM68 °FOvercast.5 mph47%29.73 "Hg37 mi
2:00 PM67 °FOvercast.3 mph49%29.74 "Hg34 mi
1:00 PM66 °FOvercast.3 mph50%29.75 "Hg25 mi
12:00 PM65 °FOvercast.3 mph55%29.77 "Hg19 mi
11:00 AM63 °FOvercast.2 mph58%29.78 "Hg14 mi
10:00 AM61 °FPartly sunny.2 mph67%29.79 "Hg7 mi
9:00 AM59 °FOvercast.2 mph73%29.79 "Hg7 mi
8:00 AM57 °FOvercast.3 mph80%29.79 "Hg11 mi
7:00 AM55 °FOvercast.2 mph85%29.79 "Hg11 mi
6:00 AM54 °FPassing clouds.2 mph86%29.78 "Hg12 mi
5:00 AM57 °FOvercast.3 mph79%29.77 "Hg15 mi
4:00 AM58 °FOvercast.3 mph76%29.77 "Hg19 mi
3:00 AM58 °FOvercast.3 mph70%29.76 "Hg19 mi
2:00 AM58 °FOvercast.2 mph68%29.76 "Hg19 mi
1:00 AM59 °FOvercast.2 mph65%29.77 "Hg22 mi
12:00 AM58 °FOvercast.2 mph61%29.76 "Hg19 mi
11:00 PM
Sat, Apr 25
59 °FOvercast.2 mph59%29.76 "Hg22 mi
Weather by CustomWeather, © 2015

See weather overviewHow to use our weather pages